Weather History for Estherville, IA

Change the Weather History Date:

Saturday, December 22, 2012

  Actual Average Record
Temperature  
Mean Temperature 18 °F 17 °F  
Max Temperature 26 °F 26 °F 49 °F (1979)
Min Temperature 9 °F 8 °F -24 °F (1989)
Degree Days  
Heating Degree Days 47 48  
Month to date heating degree days 812 987  
Since 1 July heating degree days 2418 2706  
Cooling Degree Days 0 0  
Month to date cooling degree days 0 0  
Year to date cooling degree days 886 593  
Moisture  
Dew Point 11 °F    
Average Humidity 81    
Maximum Humidity 88    
Minimum Humidity 73    
Precipitation  
Precipitation 0.00 in 0.00 in 0.23 in (1968)
Month to date precipitation 0.78 0.59  
Sea Level Pressure  
Sea Level Pressure 30.07 in    
Wind  
Wind Speed 9 mph (WSW)    
Max Wind Speed 17 mph    
Max Gust Speed 22 mph    
Visibility 9 miles    
Events      
T = Trace of Precipitation, MM = Missing Value Source: NWS Daily Summary

Daily Weather History Graph

Daily Weather History Graph

Search for Another Location

Airport:

Trip Planner

Search our weather history database for the weather conditions in past years. The results will help you decide how hot, cold, wet, or windy it might be!

Date:

Astronomy

Dec. 22, 2012 Rise Set
Actual Time 7:49 AM CST 4:46 PM CST
Civil Twilight 7:16 AM CST 5:19 PM CST
Nautical Twilight 6:40 AM CST 5:55 PM CST
Astronomical Twilight 6:05 AM CST 6:30 PM CST
Moon 1:09 PM CST (12/22) 2:29 AM CST (12/22)
Length of Visible Light 10h 02m
Length of Day
8h 57m
Waxing Gibbous, 74% of the Moon is Illuminated
Dec 22
Waxing Gibbous
Dec 28
Full
Jan 4
Last Quarter
Jan 11
New
Jan 18
First Quarter

Hourly Weather History & Observations

Time (CST) Temp. Windchill Dew Point Humidity Pressure Visibility Wind Dir Wind Speed Gust Speed Precip Events Conditions
12:52 AM 10.9 °F -2.6 °F 7.0 °F 84% 30.21 in 10.0 mi South 10.4 mph - N/A   Clear
1:52 AM 10.9 °F -3.4 °F 6.1 °F 81% 30.18 in 10.0 mi South 11.5 mph - N/A   Clear
2:52 AM 10.0 °F -2.9 °F 6.1 °F 84% 30.16 in 10.0 mi South 9.2 mph - N/A   Clear
3:52 AM 12.0 °F -2.0 °F 7.0 °F 80% 30.14 in 10.0 mi South 11.5 mph - N/A   Clear
4:52 AM 14.0 °F -0.2 °F 8.1 °F 77% 30.10 in 10.0 mi South 12.7 mph - N/A   Clear
5:52 AM 15.1 °F -0.1 °F 9.0 °F 77% 30.07 in 10.0 mi South 15.0 mph - N/A   Clear
6:52 AM 14.0 °F 2.0 °F 9.0 °F 80% 30.06 in 10.0 mi South 9.2 mph - N/A   Clear
7:52 AM 14.0 °F 2.0 °F 8.1 °F 77% 30.05 in 10.0 mi South 9.2 mph - N/A   Clear
8:52 AM 15.1 °F 5.2 °F 10.0 °F 80% 30.04 in 9.0 mi South 6.9 mph - N/A   Clear
9:52 AM 18.0 °F 7.7 °F 12.0 °F 78% 30.05 in 9.0 mi South 8.1 mph - N/A   Clear
10:52 AM 19.9 °F 14.9 °F 14.0 °F 78% 30.06 in 9.0 mi South 3.5 mph - N/A   Clear
11:52 AM 21.9 °F - 16.0 °F 78% 30.02 in 9.0 mi Calm Calm - N/A   Clear
12:52 PM 24.1 °F - 17.1 °F 75% 30.00 in 9.0 mi Calm Calm - N/A   Clear
1:52 PM 25.0 °F 20.7 °F 17.1 °F 72% 30.00 in 8.0 mi North 3.5 mph - N/A   Clear
2:52 PM 25.0 °F 18.1 °F 18.0 °F 75% 29.99 in 7.0 mi North 5.8 mph - N/A   Clear
3:52 PM 24.1 °F 15.2 °F 18.0 °F 77% 30.01 in 6.0 mi NNW 8.1 mph - N/A   Haze
4:52 PM 19.0 °F 10.0 °F 14.0 °F 81% 30.02 in 4.0 mi North 6.9 mph - N/A   Haze
5:52 PM 16.0 °F 3.6 °F 12.0 °F 84% 30.04 in 7.0 mi NNW 10.4 mph - N/A   Clear
6:52 PM 14.0 °F 1.2 °F 9.0 °F 80% 30.06 in 8.0 mi NNW 10.4 mph - N/A   Clear
8:52 PM 10.9 °F -4.1 °F 7.0 °F 84% 30.09 in 8.0 mi NNW 12.7 mph - N/A   Clear
9:52 PM 10.0 °F -5.2 °F 6.1 °F 84% 30.09 in 9.0 mi NNW 12.7 mph - N/A   Clear
10:52 PM 10.0 °F -3.7 °F 6.1 °F 84% 30.10 in 10.0 mi NNW 10.4 mph - N/A   Clear
11:52 PM 9.0 °F -5.9 °F 5.0 °F 84% 30.09 in 10.0 mi NNW 11.5 mph - N/A   Clear